When you browse on this site, cookies collect data to enhance your experience and personalize the content and advertising you see.
Visit our Privacy Policy to learn more. By continuing to use the site, you agree to this use of cookies and data.
  • în România
  • Lista ţărilor
  • Pe 7 zile
  • Temperatura apei
  • Hartă satelitară
  • Meteo pe hartă
  • Widget-uri
  • user-avatar
    Intrare

    Meteo pe oră la Omagh

    Astăzi, 16 Ianuarie, Miercuri

    Timp Temperatura Precipitaţii Vânt Presiune Umiditate
    00:00 +7°C° 0.1 mm 5 m/s 744 mmHg 86%
    01:00 +7°C° 0.9 mm 4 m/s 743 mmHg 88%
    02:00 +6°C° 0.9 mm 4 m/s 743 mmHg 90%
    03:00 +6°C° 0.9 mm 4 m/s 742 mmHg 92%
    04:00 +5°C° 0.3 mm 4 m/s 742 mmHg 90%
    05:00 +5°C° 0.3 mm 3 m/s 742 mmHg 89%
    06:00 +4°C° 0.3 mm 3 m/s 742 mmHg 88%
    07:00 +3°C° 0 mm 3 m/s 742 mmHg 88%
    08:00 +3°C° 0 mm 3 m/s 742 mmHg 89%
    09:00 +3°C° 0 mm 2 m/s 742 mmHg 90%
    10:00 +3°C° 0 mm 3 m/s 742 mmHg 87%
    11:00 +4°C° 0 mm 3 m/s 742 mmHg 84%
    12:00 +4°C° 0 mm 4 m/s 742 mmHg 81%
    13:00 +4°C° 0.3 mm 3 m/s 742 mmHg 82%
    14:00 +4°C° 0.3 mm 3 m/s 741 mmHg 83%
    15:00 +5°C° 0.3 mm 2 m/s 741 mmHg 84%
    16:00 +5°C° 0.1 mm 2 m/s 742 mmHg 86%
    17:00 +4°C° 0.1 mm 2 m/s 742 mmHg 88%
    18:00 +3°C° 0.1 mm 2 m/s 743 mmHg 90%
    19:00 +3°C° 0 mm 2 m/s 743 mmHg 91%
    20:00 +2°C° 0 mm 2 m/s 744 mmHg 92%
    21:00 +2°C° 0 mm 2 m/s 745 mmHg 92%
    22:00 +2°C° 0 mm 2 m/s 747 mmHg 91%
    23:00 +2°C° 0 mm 2 m/s 748 mmHg 90%

    Mâine, 17 Ianuarie, Joi

    Timp Temperatura Precipitaţii Vânt Presiune Umiditate
    00:00 +1°C° 0 mm 3 m/s 749 mmHg 89%
    01:00 +1°C° 0 mm 3 m/s 750 mmHg 89%
    02:00 +1°C° 0 mm 3 m/s 751 mmHg 88%
    03:00 +1°C° 0 mm 2 m/s 752 mmHg 87%
    04:00 +1°C° 0 mm 2 m/s 753 mmHg 88%
    05:00 -1°C° 0 mm 2 m/s 754 mmHg 88%
    06:00 0°C° 0 mm 1 m/s 754 mmHg 89%
    07:00 +1°C° 0 mm 1 m/s 755 mmHg 88%
    08:00 +1°C° 0 mm 1 m/s 755 mmHg 88%
    09:00 +1°C° 0 mm 1 m/s 756 mmHg 87%
    10:00 +2°C° 0 mm 1 m/s 756 mmHg 85%
    11:00 +3°C° 0 mm 1 m/s 756 mmHg 83%
    12:00 +3°C° 0 mm 0 m/s 756 mmHg 80%
    13:00 +4°C° 0 mm 1 m/s 756 mmHg 80%
    14:00 +4°C° 0 mm 1 m/s 756 mmHg 80%
    15:00 +4°C° 0 mm 1 m/s 756 mmHg 79%
    16:00 +3°C° 0 mm 1 m/s 755 mmHg 83%
    17:00 +3°C° 0 mm 1 m/s 755 mmHg 86%
    18:00 +1°C° 0 mm 2 m/s 755 mmHg 90%
    19:00 +1°C° 0 mm 2 m/s 754 mmHg 88%
    20:00 0°C° 0 mm 3 m/s 753 mmHg 86%
    21:00 0°C° 0 mm 3 m/s 753 mmHg 84%
    22:00 0°C° 0.3 mm 4 m/s 752 mmHg 84%
    23:00 0°C° 0.3 mm 5 m/s 751 mmHg 85%

    Poimâine, 18 Ianuarie, Vineri

    Timp Temperatura Precipitaţii Vânt Presiune Umiditate
    00:00 0°C° 0.3 mm 5 m/s 749 mmHg 85%
    01:00 0°C° 1.2 mm 5 m/s 749 mmHg 88%
    02:00 +1°C° 1.2 mm 5 m/s 748 mmHg 91%
    03:00 +1°C° 1.2 mm 5 m/s 747 mmHg 95%
    04:00 +3°C° 0.2 mm 4 m/s 746 mmHg 96%
    05:00 +3°C° 0.2 mm 3 m/s 746 mmHg 97%
    06:00 +4°C° 0.2 mm 2 m/s 745 mmHg 99%
    07:00 +4°C° 0 mm 2 m/s 745 mmHg 99%
    08:00 +4°C° 0 mm 2 m/s 745 mmHg 99%
    09:00 +5°C° 0 mm 1 m/s 745 mmHg 99%
    10:00 +5°C° 0 mm 1 m/s 745 mmHg 98%
    11:00 +6°C° 0 mm 1 m/s 745 mmHg 98%
    12:00 +6°C° 0 mm 1 m/s 745 mmHg 97%
    13:00 +6°C° 0 mm 1 m/s 744 mmHg 97%
    14:00 +6°C° 0 mm 1 m/s 744 mmHg 97%
    15:00 +6°C° 0 mm 1 m/s 744 mmHg 97%
    16:00 +6°C° 0 mm 1 m/s 744 mmHg 97%
    17:00 +5°C° 0 mm 1 m/s 744 mmHg 98%
    18:00 +5°C° 0 mm 1 m/s 744 mmHg 98%
    19:00 +5°C° 0 mm 1 m/s 744 mmHg 98%
    20:00 +5°C° 0 mm 1 m/s 745 mmHg 98%
    21:00 +4°C° 0 mm 1 m/s 745 mmHg 98%
    22:00 +4°C° 0 mm 1 m/s 745 mmHg 98%
    23:00 +3°C° 0 mm 1 m/s 745 mmHg 98%

    19 Ianuarie, Sâmbătă

    Timp Temperatura Precipitaţii Vânt Presiune Umiditate
    00:00 +2°C° 0 mm 1 m/s 745 mmHg 98%
    01:00 +2°C° 0 mm 1 m/s 746 mmHg 98%
    02:00 +2°C° 0 mm 1 m/s 746 mmHg 98%
    03:00 +3°C° 0 mm 1 m/s 746 mmHg 98%
    04:00 +3°C° 0 mm 1 m/s 746 mmHg 98%
    05:00 +4°C° 0 mm 1 m/s 746 mmHg 98%
    06:00 +4°C° 0 mm 1 m/s 747 mmHg 98%
    07:00 +4°C° 0 mm 1 m/s 747 mmHg 97%
    08:00 +5°C° 0 mm 1 m/s 748 mmHg 97%
    09:00 +5°C° 0 mm 1 m/s 748 mmHg 96%
    10:00 +5°C° 0 mm 1 m/s 749 mmHg 94%
    11:00 +6°C° 0 mm 1 m/s 749 mmHg 92%
    12:00 +6°C° 0 mm 1 m/s 750 mmHg 90%
    13:00 +6°C° 0 mm 1 m/s 750 mmHg 90%
    14:00 +6°C° 0 mm 1 m/s 750 mmHg 90%
    15:00 +6°C° 0 mm 1 m/s 750 mmHg 90%
    16:00 +6°C° 0 mm 1 m/s 751 mmHg 91%
    17:00 +5°C° 0 mm 1 m/s 752 mmHg 93%
    18:00 +5°C° 0 mm 1 m/s 752 mmHg 94%
    19:00 +5°C° 0 mm 1 m/s 753 mmHg 94%
    20:00 +5°C° 0 mm 1 m/s 753 mmHg 95%
    21:00 +5°C° 0 mm 1 m/s 754 mmHg 96%
    22:00 +5°C° 0 mm 1 m/s 754 mmHg 96%
    23:00 +5°C° 0 mm 1 m/s 755 mmHg 97%

    20 Ianuarie, Duminică

    Timp Temperatura Precipitaţii Vânt Presiune Umiditate
    00:00 +5°C° 0 mm 1 m/s 755 mmHg 97%
    01:00 +5°C° 0 mm 1 m/s 755 mmHg 97%
    02:00 +4°C° 0 mm 1 m/s 756 mmHg 97%
    03:00 +4°C° 0 mm 1 m/s 756 mmHg 97%
    04:00 +4°C° 0 mm 1 m/s 756 mmHg 97%
    05:00 +4°C° 0 mm 1 m/s 756 mmHg 97%
    06:00 +4°C° 0 mm 1 m/s 757 mmHg 97%
    07:00 +4°C° 0 mm 1 m/s 757 mmHg 97%
    08:00 +4°C° 0 mm 1 m/s 758 mmHg 96%
    09:00 +5°C° 0 mm 1 m/s 759 mmHg 96%
    10:00 +5°C° 0 mm 1 m/s 759 mmHg 94%
    11:00 +6°C° 0 mm 1 m/s 760 mmHg 92%
    12:00 +7°C° 0 mm 1 m/s 760 mmHg 89%
    13:00 +7°C° 0 mm 1 m/s 761 mmHg 90%
    14:00 +7°C° 0 mm 1 m/s 761 mmHg 91%
    15:00 +7°C° 0 mm 1 m/s 761 mmHg 92%
    16:00 +6°C° 0 mm 1 m/s 761 mmHg 93%
    17:00 +5°C° 0 mm 1 m/s 762 mmHg 95%
    18:00 +4°C° 0 mm 2 m/s 762 mmHg 96%
    19:00 +4°C° 0 mm 1 m/s 763 mmHg 96%
    20:00 +3°C° 0 mm 1 m/s 763 mmHg 96%
    21:00 +2°C° 0 mm 1 m/s 763 mmHg 96%
    22:00 +2°C° 0 mm 1 m/s 763 mmHg 96%
    23:00 +2°C° 0 mm 1 m/s 763 mmHg 96%

    21 Ianuarie, Luni

    Timp Temperatura Precipitaţii Vânt Presiune Umiditate
    00:00 +1°C° 0 mm 1 m/s 763 mmHg 95%
    01:00 +1°C° 0 mm 1 m/s 763 mmHg 95%
    02:00 +1°C° 0 mm 1 m/s 762 mmHg 95%
    03:00 +1°C° 0 mm 1 m/s 761 mmHg 95%
    04:00 +1°C° 0 mm 1 m/s 761 mmHg 96%
    05:00 -1°C° 0 mm 2 m/s 760 mmHg 96%
    06:00 -1°C° 0 mm 2 m/s 759 mmHg 97%
    07:00 0°C° 0 mm 3 m/s 759 mmHg 96%
    08:00 0°C° 0 mm 3 m/s 758 mmHg 95%
    09:00 0°C° 0 mm 4 m/s 757 mmHg 93%
    10:00 +1°C° 0.1 mm 5 m/s 755 mmHg 91%
    11:00 +1°C° 0.1 mm 6 m/s 754 mmHg 89%
    12:00 +2°C° 0.1 mm 7 m/s 753 mmHg 87%
    13:00 +3°C° 1 mm 6 m/s 751 mmHg 89%
    14:00 +3°C° 1 mm 6 m/s 750 mmHg 90%
    15:00 +3°C° 1 mm 5 m/s 749 mmHg 92%
    16:00 +2°C° 0.2 mm 5 m/s 749 mmHg 90%
    17:00 +1°C° 0.2 mm 4 m/s 748 mmHg 89%
    18:00 +1°C° 0.2 mm 3 m/s 748 mmHg 87%
    19:00 +1°C° 0 mm 3 m/s 748 mmHg 87%
    20:00 +1°C° 0 mm 3 m/s 747 mmHg 87%
    21:00 0°C° 0 mm 4 m/s 747 mmHg 86%
    22:00 0°C° 0.8 mm 4 m/s 746 mmHg 87%
    23:00 +1°C° 0.8 mm 4 m/s 746 mmHg 88%
    Arată mai mult